TimeCST,TemperatureF,Dew PointF,Humidity,Sea Level PressureIn,VisibilityMPH,Wind Direction,Wind SpeedMPH,Gust SpeedMPH,PrecipitationIn,Events,Conditions,WindDirDegrees,DateUTC
12:53 AM,63.0,62.1,97,30.06,9.0,SSE,4.6,-,N/A,,Mostly Cloudy,160,2014-03-02 06:53:00
1:07 AM,63.0,62.1,97,30.07,7.0,SSE,4.6,-,N/A,,Mostly Cloudy,160,2014-03-02 07:07:00
1:36 AM,63.0,62.1,97,30.06,5.0,SSE,5.8,-,N/A,,Mostly Cloudy,160,2014-03-02 07:36:00
1:53 AM,63.0,62.1,97,30.06,6.0,SSE,5.8,-,N/A,,Mostly Cloudy,160,2014-03-02 07:53:00
2:53 AM,63.0,63.0,100,30.08,3.0,Calm,Calm,-,N/A,,Overcast,0,2014-03-02 08:53:00
3:37 AM,64.9,64.0,97,30.07,6.0,Variable,4.6,-,N/A,,Overcast,0,2014-03-02 09:37:00
3:53 AM,64.9,64.0,97,30.07,7.0,SE,3.5,-,N/A,,Overcast,130,2014-03-02 09:53:00
4:07 AM,64.9,64.0,97,30.06,8.0,SE,6.9,-,N/A,,Overcast,140,2014-03-02 10:07:00
4:53 AM,64.9,64.0,97,30.06,10.0,SE,6.9,-,N/A,,Overcast,130,2014-03-02 10:53:00
5:53 AM,64.9,64.0,97,30.07,10.0,SE,5.8,-,N/A,,Overcast,130,2014-03-02 11:53:00
6:32 AM,64.9,63.0,93,30.07,10.0,SE,8.1,-,N/A,,Overcast,140,2014-03-02 12:32:00
6:53 AM,64.9,63.0,93,30.08,10.0,SE,5.8,-,N/A,,Overcast,140,2014-03-02 12:53:00
7:53 AM,66.0,63.0,90,30.09,10.0,Variable,5.8,-,N/A,,Overcast,0,2014-03-02 13:53:00
8:03 AM,66.0,63.0,90,30.09,10.0,SE,5.8,-,N/A,,Overcast,130,2014-03-02 14:03:00
8:22 AM,66.0,63.0,90,30.10,10.0,Variable,5.8,-,N/A,,Overcast,0,2014-03-02 14:22:00
8:53 AM,68.0,63.0,84,30.10,10.0,Variable,4.6,-,N/A,,Overcast,0,2014-03-02 14:53:00
9:23 AM,69.1,64.0,84,30.11,10.0,SSE,6.9,-,N/A,,Overcast,150,2014-03-02 15:23:00
9:32 AM,69.1,64.0,84,30.11,10.0,Variable,4.6,-,N/A,,Overcast,0,2014-03-02 15:32:00
9:53 AM,70.0,64.0,81,30.11,10.0,Variable,5.8,-,N/A,,Overcast,0,2014-03-02 15:53:00
10:10 AM,72.0,64.9,78,30.10,10.0,SSE,11.5,18.4,N/A,,Overcast,150,2014-03-02 16:10:00
10:53 AM,73.0,66.0,79,30.10,10.0,South,11.5,16.1,N/A,,Mostly Cloudy,180,2014-03-02 16:53:00
11:53 AM,75.0,66.0,73,30.08,10.0,South,18.4,24.2,N/A,,Mostly Cloudy,170,2014-03-02 17:53:00
12:02 PM,75.0,66.0,73,30.08,10.0,South,18.4,26.5,N/A,,Mostly Cloudy,170,2014-03-02 18:02:00
12:46 PM,75.0,64.9,71,30.06,10.0,South,15.0,-,N/A,,Overcast,180,2014-03-02 18:46:00
12:53 PM,75.0,64.9,71,30.06,10.0,South,13.8,25.3,N/A,,Overcast,180,2014-03-02 18:53:00
1:08 PM,75.0,64.9,71,30.05,10.0,South,17.3,24.2,N/A,,Overcast,180,2014-03-02 19:08:00
1:15 PM,75.9,64.9,69,30.04,10.0,South,13.8,24.2,N/A,,Overcast,170,2014-03-02 19:15:00
1:53 PM,75.0,64.9,71,30.02,10.0,South,15.0,25.3,N/A,,Mostly Cloudy,180,2014-03-02 19:53:00
2:53 PM,75.0,64.0,69,30.00,10.0,South,12.7,23.0,N/A,,Mostly Cloudy,170,2014-03-02 20:53:00
3:53 PM,73.9,64.9,73,29.98,10.0,South,13.8,-,N/A,,Overcast,180,2014-03-02 21:53:00
4:00 PM,73.9,64.9,73,29.97,10.0,South,11.5,21.9,N/A,,Overcast,170,2014-03-02 22:00:00
4:53 PM,73.0,64.9,76,29.96,10.0,SSE,11.5,20.7,N/A,,Overcast,160,2014-03-02 22:53:00
5:53 PM,71.1,64.0,78,29.96,10.0,South,10.4,21.9,N/A,,Mostly Cloudy,170,2014-03-02 23:53:00
6:17 PM,71.1,64.0,78,29.96,10.0,South,12.7,20.7,N/A,,Mostly Cloudy,170,2014-03-03 00:17:00
6:24 PM,71.1,64.0,78,29.97,10.0,South,11.5,-,N/A,,Overcast,170,2014-03-03 00:24:00
6:51 PM,69.8,64.4,83,29.97,10.0,South,9.2,-,N/A,,Overcast,180,2014-03-03 00:51:00
6:53 PM,70.0,64.0,81,29.98,10.0,South,9.2,-,N/A,,Overcast,190,2014-03-03 00:53:00
7:53 PM,68.0,64.9,90,29.98,10.0,South,8.1,-,0.01,Rain,Light Rain,190,2014-03-03 01:53:00
8:01 PM,68.0,64.9,90,29.97,10.0,South,5.8,-,0.00,,Overcast,170,2014-03-03 02:01:00
8:53 PM,66.9,64.9,93,29.96,10.0,South,10.4,-,0.00,,Mostly Cloudy,180,2014-03-03 02:53:00
9:43 PM,68.0,64.9,90,29.96,10.0,South,10.4,-,N/A,,Mostly Cloudy,180,2014-03-03 03:43:00
9:53 PM,68.0,64.9,90,29.96,10.0,South,12.7,-,N/A,,Mostly Cloudy,190,2014-03-03 03:53:00
10:43 PM,69.1,64.9,87,29.96,10.0,South,17.3,23.0,N/A,,Mostly Cloudy,190,2014-03-03 04:43:00
10:53 PM,69.1,64.9,87,29.96,10.0,South,15.0,24.2,N/A,,Mostly Cloudy,190,2014-03-03 04:53:00
11:31 PM,69.1,64.9,87,29.95,10.0,South,11.5,-,N/A,,Overcast,190,2014-03-03 05:31:00
11:53 PM,68.0,66.0,93,29.98,10.0,NW,15.0,20.7,N/A,,Overcast,310,2014-03-03 05:53:00